Time,TemperatureF,DewpointF,PressureIn,WindDirection,WindDirectionDegrees,WindSpeedMPH,WindSpeedGustMPH,Humidity,HourlyPrecipIn,Conditions,Clouds,dailyrainin,SoftwareType,DateUTC
2013-01-02 00:02:00,37.0,33.0,30.03,South,180,4.0,8.0,85,0.00,,,0.02,,2013-01-02 06:02:00,
2013-01-02 00:12:00,37.0,33.0,30.03,South,180,4.0,8.0,85,0.00,,,0.02,,2013-01-02 06:12:00,
2013-01-02 00:22:00,37.0,33.0,30.03,SW,225,3.0,5.0,85,0.00,,,0.02,,2013-01-02 06:22:00,
2013-01-02 00:32:00,37.0,33.0,30.03,SW,225,5.0,9.0,86,0.00,,,0.02,,2013-01-02 06:32:00,
2013-01-02 00:42:00,37.0,33.0,30.03,SW,225,5.0,9.0,86,0.00,,,0.02,,2013-01-02 06:42:00,
2013-01-02 00:53:00,37.0,34.0,30.03,SW,225,4.0,9.0,87,0.00,,,0.02,,2013-01-02 06:53:00,
2013-01-02 01:02:00,36.0,33.0,30.03,SW,225,6.0,13.0,88,0.00,,,0.02,,2013-01-02 07:02:00,
2013-01-02 01:12:00,36.0,33.0,30.03,SW,225,6.0,13.0,88,0.00,,,0.02,,2013-01-02 07:12:00,
2013-01-02 01:22:00,36.0,33.0,30.03,South,180,5.0,10.0,87,0.00,,,0.02,,2013-01-02 07:22:00,
2013-01-02 01:32:00,36.0,33.0,30.03,South,180,4.0,10.0,87,0.00,,,0.02,,2013-01-02 07:32:00,
2013-01-02 01:42:00,36.0,33.0,30.03,South,180,4.0,10.0,87,0.00,,,0.02,,2013-01-02 07:42:00,
2013-01-02 01:52:00,36.0,33.0,30.03,SW,225,2.0,9.0,87,0.00,,,0.02,,2013-01-02 07:52:00,
2013-01-02 02:02:00,36.0,33.0,30.03,SW,225,3.0,11.0,87,0.00,,,0.02,,2013-01-02 08:02:00,
2013-01-02 02:11:00,36.0,33.0,30.03,SW,225,3.0,11.0,87,0.00,,,0.02,,2013-01-02 08:11:00,
2013-01-02 02:22:00,36.0,33.0,30.04,SW,225,4.0,9.0,87,0.00,,,0.02,,2013-01-02 08:22:00,
2013-01-02 02:32:00,36.0,33.0,30.04,WSW,248,4.0,8.0,87,0.00,,,0.02,,2013-01-02 08:32:00,
2013-01-02 02:42:00,36.0,33.0,30.04,WSW,248,4.0,8.0,87,0.00,,,0.02,,2013-01-02 08:42:00,
2013-01-02 02:52:00,35.0,32.0,30.05,West,270,4.0,9.0,87,0.00,,,0.02,,2013-01-02 08:52:00,
2013-01-02 03:02:00,35.0,32.0,30.05,West,270,4.0,9.0,87,0.00,,,0.02,,2013-01-02 09:02:00,
2013-01-02 03:12:00,35.0,32.0,30.05,West,270,4.0,9.0,87,0.00,,,0.02,,2013-01-02 09:12:00,
2013-01-02 03:22:00,35.0,32.0,30.05,SW,225,4.0,8.0,87,0.00,,,0.02,,2013-01-02 09:22:00,
2013-01-02 03:32:00,35.0,32.0,30.05,SW,225,2.0,8.0,87,0.00,,,0.02,,2013-01-02 09:32:00,
2013-01-02 03:43:00,35.0,32.0,30.05,SW,225,2.0,8.0,87,0.00,,,0.02,,2013-01-02 09:43:00,
2013-01-02 03:53:00,35.0,32.0,30.05,SW,225,2.0,9.0,88,0.00,,,0.02,,2013-01-02 09:53:00,
2013-01-02 04:02:00,35.0,32.0,30.05,SW,225,4.0,8.0,88,0.00,,,0.02,,2013-01-02 10:02:00,
2013-01-02 04:12:00,35.0,32.0,30.05,SW,225,4.0,8.0,88,0.00,,,0.02,,2013-01-02 10:12:00,
2013-01-02 04:22:00,35.0,32.0,30.04,SW,225,3.0,5.0,89,0.00,,,0.02,,2013-01-02 10:22:00,
2013-01-02 04:32:00,35.0,32.0,30.04,SW,225,3.0,5.0,89,0.00,,,0.02,,2013-01-02 10:32:00,
2013-01-02 04:42:00,35.0,32.0,30.04,SW,225,3.0,5.0,89,0.00,,,0.02,,2013-01-02 10:42:00,
2013-01-02 04:52:00,35.0,32.0,30.03,SW,225,6.0,11.0,88,0.00,,,0.02,,2013-01-02 10:52:00,
2013-01-02 05:02:00,35.0,32.0,30.03,SW,225,2.0,9.0,88,0.00,,,0.02,,2013-01-02 11:02:00,
2013-01-02 05:12:00,35.0,32.0,30.03,SW,225,2.0,9.0,88,0.00,,,0.02,,2013-01-02 11:12:00,
2013-01-02 05:22:00,35.0,32.0,30.04,South,180,2.0,7.0,89,0.00,,,0.02,,2013-01-02 11:22:00,
2013-01-02 05:32:00,35.0,32.0,30.04,South,180,2.0,5.0,89,0.00,,,0.02,,2013-01-02 11:32:00,
2013-01-02 05:42:00,35.0,32.0,30.04,South,180,2.0,5.0,89,0.00,,,0.02,,2013-01-02 11:42:00,
2013-01-02 05:52:00,35.0,32.0,30.04,SSW,202,2.0,6.0,89,0.00,,,0.02,,2013-01-02 11:52:00,
2013-01-02 06:02:00,35.0,32.0,30.04,SSW,202,2.0,6.0,89,0.00,,,0.02,,2013-01-02 12:02:00,
2013-01-02 06:12:00,35.0,32.0,30.04,SSW,202,2.0,6.0,89,0.00,,,0.02,,2013-01-02 12:12:00,
2013-01-02 06:22:00,35.0,32.0,30.04,SW,225,2.0,6.0,88,0.00,,,0.02,,2013-01-02 12:22:00,
2013-01-02 06:32:00,35.0,32.0,30.04,South,180,3.0,7.0,88,0.00,,,0.02,,2013-01-02 12:32:00,
2013-01-02 06:43:00,35.0,32.0,30.04,South,180,3.0,7.0,88,0.00,,,0.02,,2013-01-02 12:43:00,
2013-01-02 06:53:00,35.0,32.0,30.04,SW,225,2.0,7.0,88,0.00,,,0.02,,2013-01-02 12:53:00,
2013-01-02 07:02:00,35.0,32.0,30.05,South,180,2.0,5.0,89,0.00,,,0.02,,2013-01-02 13:02:00,
2013-01-02 07:12:00,35.0,32.0,30.05,South,180,2.0,5.0,89,0.00,,,0.02,,2013-01-02 13:12:00,
2013-01-02 07:22:00,35.0,32.0,30.06,South,180,3.0,6.0,89,0.00,,,0.02,,2013-01-02 13:22:00,
2013-01-02 07:32:00,35.0,32.0,30.06,South,180,3.0,6.0,90,0.00,,,0.02,,2013-01-02 13:32:00,
2013-01-02 07:42:00,35.0,32.0,30.06,South,180,3.0,6.0,90,0.00,,,0.02,,2013-01-02 13:42:00,
2013-01-02 07:52:00,35.0,32.0,30.05,SW,225,2.0,10.0,89,0.00,,,0.02,,2013-01-02 13:52:00,
2013-01-02 08:02:00,35.0,32.0,30.05,South,180,2.0,8.0,89,0.00,,,0.02,,2013-01-02 14:02:00,
2013-01-02 08:12:00,35.0,32.0,30.05,South,180,2.0,8.0,89,0.00,,,0.02,,2013-01-02 14:12:00,
2013-01-02 08:22:00,35.0,32.0,30.05,SW,225,3.0,8.0,89,0.00,,,0.02,,2013-01-02 14:22:00,
2013-01-02 08:33:00,35.0,32.0,30.06,South,180,3.0,8.0,89,0.00,,,0.01,,2013-01-02 14:33:00,
2013-01-02 08:42:00,35.0,32.0,30.06,South,180,3.0,8.0,89,0.00,,,0.01,,2013-01-02 14:42:00,
2013-01-02 08:53:00,35.0,32.0,30.07,South,180,4.0,11.0,87,0.00,,,0.01,,2013-01-02 14:53:00,
2013-01-02 09:03:00,35.0,32.0,30.07,SW,225,4.0,10.0,87,0.00,,,0.01,,2013-01-02 15:03:00,
2013-01-02 09:12:00,35.0,32.0,30.07,SW,225,4.0,10.0,87,0.00,,,0.01,,2013-01-02 15:12:00,
2013-01-02 09:22:00,35.0,32.0,30.08,SW,225,3.0,8.0,87,0.00,,,0.01,,2013-01-02 15:22:00,
2013-01-02 09:33:00,36.0,32.0,30.07,SW,225,5.0,9.0,85,0.00,,,0.01,,2013-01-02 15:33:00,
2013-01-02 09:43:00,36.0,32.0,30.07,SW,225,5.0,9.0,85,0.00,,,0.01,,2013-01-02 15:43:00,
2013-01-02 09:53:00,36.0,32.0,30.08,SW,225,2.0,10.0,84,0.00,,,0.01,,2013-01-02 15:53:00,
2013-01-02 10:03:00,37.0,31.0,30.08,South,180,4.0,6.0,80,0.00,,,0.01,,2013-01-02 16:03:00,
2013-01-02 10:12:00,37.0,31.0,30.08,South,180,4.0,6.0,80,0.00,,,0.01,,2013-01-02 16:12:00,
2013-01-02 10:22:00,36.0,30.0,30.09,South,180,5.0,7.0,80,0.00,,,0.01,,2013-01-02 16:22:00,
2013-01-02 10:33:00,37.0,31.0,30.09,SE,135,3.0,8.0,80,0.00,,,0.01,,2013-01-02 16:33:00,
2013-01-02 10:42:00,37.0,31.0,30.09,SE,135,3.0,8.0,80,0.00,,,0.01,,2013-01-02 16:42:00,
2013-01-02 10:53:00,38.0,32.0,30.08,SE,135,3.0,7.0,78,0.00,,,0.01,,2013-01-02 16:53:00,
2013-01-02 11:03:00,39.0,32.0,30.07,SW,225,2.0,8.0,76,0.00,,,0.00,,2013-01-02 17:03:00,
2013-01-02 11:12:00,39.0,32.0,30.07,SW,225,2.0,8.0,76,0.00,,,0.00,,2013-01-02 17:12:00,
2013-01-02 11:23:00,39.0,31.0,30.07,SSE,158,4.0,9.0,74,0.00,,,0.00,,2013-01-02 17:23:00,
2013-01-02 11:33:00,39.0,31.0,30.06,SW,225,2.0,8.0,74,0.00,,,0.00,,2013-01-02 17:33:00,
2013-01-02 11:43:00,39.0,31.0,30.06,SW,225,2.0,8.0,74,0.00,,,0.00,,2013-01-02 17:43:00,
2013-01-02 11:53:00,41.0,32.0,30.06,South,180,4.0,8.0,71,0.00,,,0.00,,2013-01-02 17:53:00,
2013-01-02 12:02:00,42.0,33.0,30.06,SE,135,1.0,9.0,70,0.00,,,0.00,,2013-01-02 18:02:00,
2013-01-02 12:12:00,42.0,33.0,30.06,SE,135,1.0,9.0,70,0.00,,,0.00,,2013-01-02 18:12:00,
2013-01-02 12:22:00,41.0,32.0,30.05,SE,135,3.0,8.0,70,0.00,,,0.00,,2013-01-02 18:22:00,
2013-01-02 12:33:00,42.0,31.0,30.03,South,180,4.0,10.0,64,0.00,,,0.00,,2013-01-02 18:33:00,
2013-01-02 12:42:00,42.0,31.0,30.03,South,180,4.0,10.0,64,0.00,,,0.00,,2013-01-02 18:42:00,
2013-01-02 12:53:00,42.0,31.0,30.03,South,180,3.0,8.0,66,0.00,,,0.00,,2013-01-02 18:53:00,
2013-01-02 13:03:00,43.0,31.0,30.03,South,180,4.0,10.0,62,0.00,,,0.00,,2013-01-02 19:03:00,
2013-01-02 13:12:00,43.0,31.0,30.03,South,180,4.0,10.0,62,0.00,,,0.00,,2013-01-02 19:12:00,
2013-01-02 13:23:00,43.0,31.0,30.02,SSE,158,4.0,8.0,62,0.00,,,0.00,,2013-01-02 19:23:00,
2013-01-02 13:33:00,44.0,31.0,30.02,South,180,5.0,7.0,60,0.00,,,0.00,,2013-01-02 19:33:00,
2013-01-02 13:43:00,44.0,31.0,30.02,South,180,5.0,7.0,60,0.00,,,0.00,,2013-01-02 19:43:00,
2013-01-02 13:53:00,44.0,31.0,30.01,South,180,9.0,11.0,60,0.00,,,0.00,,2013-01-02 19:53:00,
2013-01-02 14:03:00,44.0,31.0,30.01,SE,135,2.0,8.0,60,0.00,,,0.00,,2013-01-02 20:03:00,
2013-01-02 14:12:00,44.0,31.0,30.01,SE,135,2.0,8.0,60,0.00,,,0.00,,2013-01-02 20:12:00,
2013-01-02 14:23:00,43.0,30.0,30.00,SE,135,4.0,10.0,59,0.00,,,0.00,,2013-01-02 20:23:00,
2013-01-02 14:33:00,44.0,30.0,30.00,SW,225,2.0,10.0,58,0.00,,,0.00,,2013-01-02 20:33:00,
2013-01-02 14:42:00,44.0,30.0,30.00,SW,225,2.0,10.0,58,0.00,,,0.00,,2013-01-02 20:42:00,
2013-01-02 14:53:00,44.0,29.0,30.00,South,180,4.0,8.0,56,0.00,,,0.00,,2013-01-02 20:53:00,
2013-01-02 15:03:00,44.0,29.0,30.00,South,180,4.0,8.0,56,0.00,,,0.00,,2013-01-02 21:03:00,
2013-01-02 15:12:00,44.0,29.0,30.00,South,180,4.0,8.0,56,0.00,,,0.00,,2013-01-02 21:12:00,
2013-01-02 15:22:00,43.0,27.0,30.00,SSE,158,5.0,10.0,53,0.00,,,0.00,,2013-01-02 21:22:00,
2013-01-02 15:32:00,43.0,27.0,30.00,South,180,4.0,10.0,53,0.00,,,0.00,,2013-01-02 21:32:00,
2013-01-02 15:43:00,43.0,27.0,30.00,South,180,4.0,10.0,53,0.00,,,0.00,,2013-01-02 21:43:00,
2013-01-02 15:53:00,43.0,27.0,30.00,South,180,4.0,10.0,53,0.00,,,0.00,,2013-01-02 21:53:00,
2013-01-02 16:03:00,43.0,28.0,30.01,South,180,4.0,9.0,54,0.00,,,0.00,,2013-01-02 22:03:00,
2013-01-02 16:12:00,43.0,28.0,30.01,South,180,4.0,9.0,54,0.00,,,0.00,,2013-01-02 22:12:00,
2013-01-02 16:22:00,43.0,28.0,30.00,SE,135,4.0,9.0,55,0.00,,,0.00,,2013-01-02 22:22:00,
2013-01-02 16:32:00,42.0,28.0,30.01,SE,135,4.0,8.0,57,0.00,,,0.00,,2013-01-02 22:32:00,
2013-01-02 16:42:00,42.0,28.0,30.01,SE,135,4.0,8.0,57,0.00,,,0.00,,2013-01-02 22:42:00,
2013-01-02 16:53:00,42.0,28.0,30.01,South,180,4.0,9.0,57,0.00,,,0.00,,2013-01-02 22:53:00,
2013-01-02 17:03:00,42.0,28.0,30.01,SE,135,3.0,7.0,57,0.00,,,0.00,,2013-01-02 23:03:00,
2013-01-02 17:12:00,42.0,28.0,30.01,SE,135,3.0,7.0,57,0.00,,,0.00,,2013-01-02 23:12:00,
2013-01-02 17:23:00,41.0,27.0,30.01,SSE,158,3.0,7.0,57,0.00,,,0.00,,2013-01-02 23:23:00,
2013-01-02 17:33:00,41.0,27.0,30.02,SE,135,3.0,6.0,58,0.00,,,0.00,,2013-01-02 23:33:00,
2013-01-02 17:42:00,41.0,27.0,30.02,SE,135,3.0,6.0,58,0.00,,,0.00,,2013-01-02 23:42:00,
2013-01-02 17:52:00,40.0,27.0,30.02,South,180,3.0,8.0,59,0.00,,,0.00,,2013-01-02 23:52:00,
2013-01-02 18:02:00,40.0,27.0,30.02,South,180,3.0,8.0,59,0.00,,,0.00,,2013-01-03 00:02:00,
2013-01-02 18:12:00,40.0,27.0,30.02,South,180,3.0,8.0,59,0.00,,,0.00,,2013-01-03 00:12:00,
2013-01-02 18:22:00,39.0,27.0,30.02,South,180,2.0,4.0,61,0.00,,,0.00,,2013-01-03 00:22:00,
2013-01-02 18:38:00,39.0,27.0,30.03,SE,135,2.0,5.0,63,0.00,,,0.00,,2013-01-03 00:38:00,
2013-01-02 18:53:00,39.0,27.0,30.03,SE,135,2.0,5.0,63,0.00,,,0.00,,2013-01-03 00:53:00,
2013-01-02 19:02:00,38.0,27.0,30.03,South,180,3.0,7.0,64,0.00,,,0.00,,2013-01-03 01:02:00,
2013-01-02 19:12:00,38.0,27.0,30.03,South,180,3.0,7.0,64,0.00,,,0.00,,2013-01-03 01:12:00,
2013-01-02 19:22:00,37.0,26.0,30.03,South,180,4.0,6.0,65,0.00,,,0.00,,2013-01-03 01:22:00,
2013-01-02 19:32:00,37.0,27.0,30.04,South,180,4.0,6.0,66,0.00,,,0.00,,2013-01-03 01:32:00,
2013-01-02 19:42:00,37.0,27.0,30.04,South,180,4.0,6.0,66,0.00,,,0.00,,2013-01-03 01:42:00,
2013-01-02 19:53:00,37.0,27.0,30.05,South,180,3.0,6.0,66,0.00,,,0.00,,2013-01-03 01:53:00,
2013-01-02 20:02:00,36.0,26.0,30.06,South,180,4.0,6.0,68,0.00,,,0.00,,2013-01-03 02:02:00,
2013-01-02 20:12:00,36.0,26.0,30.06,South,180,4.0,6.0,68,0.00,,,0.00,,2013-01-03 02:12:00,
2013-01-02 20:22:00,36.0,27.0,30.06,South,180,2.0,5.0,69,0.00,,,0.00,,2013-01-03 02:22:00,
2013-01-02 20:33:00,35.0,26.0,30.06,South,180,2.0,4.0,70,0.00,,,0.00,,2013-01-03 02:33:00,
2013-01-02 20:42:00,35.0,26.0,30.06,South,180,2.0,4.0,70,0.00,,,0.00,,2013-01-03 02:42:00,
2013-01-02 20:52:00,35.0,26.0,30.06,South,180,2.0,4.0,70,0.00,,,0.00,,2013-01-03 02:52:00,
2013-01-02 21:02:00,35.0,27.0,30.07,South,180,0.0,3.0,72,0.00,,,0.00,,2013-01-03 03:02:00,
2013-01-02 21:12:00,34.0,26.0,30.07,SW,225,1.0,2.0,72,0.00,,,0.00,,2013-01-03 03:12:00,
2013-01-02 21:22:00,34.0,26.0,30.07,SW,225,1.0,2.0,72,0.00,,,0.00,,2013-01-03 03:22:00,
2013-01-02 21:46:00,34.0,27.0,30.07,SW,225,1.0,4.0,74,0.00,,,0.00,,2013-01-03 03:46:00,
2013-01-02 21:53:00,34.0,27.0,30.08,South,180,2.0,4.0,74,0.00,,,0.00,,2013-01-03 03:53:00,
2013-01-02 22:02:00,33.0,26.0,30.07,South,180,0.0,2.0,74,0.00,,,0.00,,2013-01-03 04:02:00,
2013-01-02 22:12:00,33.0,26.0,30.07,South,180,0.0,2.0,74,0.00,,,0.00,,2013-01-03 04:12:00,
2013-01-02 22:22:00,33.0,26.0,30.08,South,180,0.0,2.0,75,0.00,,,0.00,,2013-01-03 04:22:00,
2013-01-02 22:32:00,33.0,26.0,30.08,South,180,0.0,2.0,75,0.00,,,0.00,,2013-01-03 04:32:00,
2013-01-02 22:42:00,33.0,26.0,30.08,South,180,0.0,2.0,75,0.00,,,0.00,,2013-01-03 04:42:00,
2013-01-02 22:52:00,32.0,26.0,30.08,SSE,158,0.0,1.0,77,0.00,,,0.00,,2013-01-03 04:52:00,
2013-01-02 23:03:00,31.0,26.0,30.08,SE,135,0.0,2.0,80,0.00,,,0.00,,2013-01-03 05:03:00,
2013-01-02 23:12:00,31.0,26.0,30.08,SE,135,0.0,2.0,80,0.00,,,0.00,,2013-01-03 05:12:00,
2013-01-02 23:22:00,30.0,25.0,30.09,SE,135,0.0,0.0,81,0.00,,,0.00,,2013-01-03 05:22:00,
2013-01-02 23:33:00,29.0,25.0,30.09,SE,135,0.0,2.0,83,0.00,,,0.00,,2013-01-03 05:33:00,
2013-01-02 23:42:00,29.0,25.0,30.09,SE,135,0.0,2.0,83,0.00,,,0.00,,2013-01-03 05:42:00,
2013-01-02 23:52:00,28.0,24.0,30.09,SE,135,0.0,0.0,84,0.00,,,0.00,,2013-01-03 05:52:00,